Location: Santa Cristina
(46.5667°N, 11.7167°E)
Time: 04:07:17
(UTC+00:00)

Cosmos 2278 Rocket - Pass Details

Date: 21 April 2021
Orbit: 842 x 844 km, 71.0° (Epoch: 10 May)

Event Time Altitude Azimuth Distance (km) Brightness Sun altitude
Exits shadow 01:30:04 50° 261° (W) 1,071 2.4 -23.9°
Maximum altitude 01:31:05 57° 301° (WNW) 988 2.4 -23.8°
Drops below altitude 10° 01:36:40 10° 20° (NNE) 2,473 5.6 -23.2°
Sets 01:39:10 0° 25° (NNE) 3,411 6.7 -22.9°
